ACA412 KOAK-CYVR

Flight info

Callsign ACA412
Flight time 1h 41m
Altitude 40000
Route OAK6 OAK DCT DEDHD DCT RBL DCT LMT DCT SEA DCT PAE GRIZZ9
Aircraft B77L/H-SDE1E2E3FGHIJ2J3J4J5M1RWXY/LB1D1

Departure

Time 2026-05-08 02:34
Airport San Francisco Bay Oakland International Airport (KOAK)

Arrival

Time 2026-05-08 04:16
Airport Vancouver International Airport (CYVR)
Time Latitude Longitude Altitude Speed Heading
2026-05-08 01:52 37.70900 -122.21792 14 ft 0 kts 219°
2026-05-08 02:29 37.70919 -122.21774 16 ft 4 kts 213°
2026-05-08 02:29 37.70942 -122.21757 15 ft 4 kts 201°
2026-05-08 02:30 37.70967 -122.21750 14 ft 4 kts 173°
2026-05-08 02:30 37.70985 -122.21758 15 ft 0 kts 127°
2026-05-08 02:32 37.70952 -122.21703 14 ft 6 kts 127°
2026-05-08 02:32 37.70848 -122.21627 14 ft 29 kts 199°
2026-05-08 02:32 37.70697 -122.21767 14 ft 25 kts 200°
2026-05-08 02:32 37.70557 -122.21662 14 ft 25 kts 128°
2026-05-08 02:33 37.70446 -122.21493 14 ft 25 kts 130°
2026-05-08 02:33 37.70341 -122.21381 14 ft 15 kts 162°
2026-05-08 02:33 37.70252 -122.21358 14 ft 11 kts 189°
2026-05-08 02:33 37.70194 -122.21399 14 ft 10 kts 215°
2026-05-08 02:34 37.70203 -122.21509 14 ft 30 kts 300°
2026-05-08 02:34 37.70527 -122.22015 15 ft 128 kts 311°
2026-05-08 02:34 37.71338 -122.23245 366 ft 214 kts 309°
2026-05-08 02:34 37.72289 -122.24578 1818 ft 210 kts 302°
2026-05-08 02:35 37.73132 -122.26232 1843 ft 230 kts 296°
2026-05-08 02:35 37.73972 -122.27984 2072 ft 237 kts 297°
2026-05-08 02:35 37.74860 -122.29795 3106 ft 247 kts 298°
2026-05-08 02:35 37.75930 -122.31538 4085 ft 260 kts 318°
2026-05-08 02:36 37.77619 -122.32463 5234 ft 273 kts 349°
2026-05-08 02:36 37.79507 -122.32360 6423 ft 278 kts 11°
2026-05-08 02:36 37.81399 -122.31688 7458 ft 287 kts 14°
2026-05-08 02:36 37.83326 -122.30937 8588 ft 291 kts 15°
2026-05-08 02:37 37.85266 -122.30165 9721 ft 294 kts 15°
2026-05-08 02:37 37.87249 -122.29376 10666 ft 306 kts 15°
2026-05-08 02:37 37.89386 -122.28532 11091 ft 338 kts 15°
2026-05-08 02:37 37.91742 -122.27609 11552 ft 366 kts 15°
2026-05-08 02:38 37.94210 -122.26641 12605 ft 374 kts 15°
2026-05-08 02:38 37.96714 -122.25660 13796 ft 379 kts 15°
2026-05-08 02:38 37.99255 -122.24668 14938 ft 385 kts 15°
2026-05-08 02:38 38.01836 -122.23662 16000 ft 391 kts 15°
2026-05-08 02:39 38.04425 -122.22655 17004 ft 397 kts 15°
2026-05-08 02:39 38.07121 -122.21606 17998 ft 403 kts 15°
2026-05-08 02:39 38.09821 -122.20555 18969 ft 409 kts 15°
2026-05-08 02:39 38.12529 -122.19500 19885 ft 415 kts 15°
2026-05-08 02:40 38.15307 -122.18418 20753 ft 421 kts 15°
2026-05-08 02:40 38.18134 -122.17315 21619 ft 427 kts 15°
2026-05-08 02:40 38.20994 -122.16197 22457 ft 432 kts 15°
2026-05-08 02:40 38.23885 -122.15067 23310 ft 437 kts 15°
2026-05-08 02:41 38.26811 -122.13923 24110 ft 442 kts 15°
2026-05-08 02:41 38.29778 -122.12777 24853 ft 447 kts 14°
2026-05-08 02:41 38.32832 -122.11943 25583 ft 451 kts
2026-05-08 02:41 38.35976 -122.11529 26286 ft 455 kts
2026-05-08 02:42 38.39153 -122.11531 26977 ft 459 kts 355°
2026-05-08 02:42 38.42319 -122.11747 27557 ft 466 kts 355°
2026-05-08 02:42 38.45582 -122.12004 28137 ft 472 kts 354°
2026-05-08 02:42 38.48879 -122.12269 28815 ft 475 kts 354°
2026-05-08 02:43 38.52186 -122.12527 29548 ft 476 kts 355°
2026-05-08 02:43 38.55511 -122.12776 30158 ft 480 kts 355°
2026-05-08 02:43 38.58871 -122.13018 30621 ft 487 kts 355°
2026-05-08 02:43 38.62275 -122.13257 31043 ft 493 kts 355°
2026-05-08 02:44 38.65716 -122.13495 31527 ft 496 kts 355°
2026-05-08 02:44 38.69160 -122.13730 32101 ft 496 kts 355°
2026-05-08 02:44 38.72545 -122.13961 32835 ft 491 kts 355°
2026-05-08 02:44 38.75954 -122.14194 33508 ft 488 kts 355°
2026-05-08 02:45 38.79344 -122.14427 34066 ft 488 kts 355°
2026-05-08 02:45 38.82742 -122.14662 34517 ft 490 kts 355°
2026-05-08 02:45 38.86152 -122.14898 34970 ft 491 kts 355°
2026-05-08 02:45 38.89549 -122.15134 35574 ft 487 kts 355°
2026-05-08 02:46 38.92928 -122.15369 36151 ft 484 kts 355°
2026-05-08 02:46 38.96293 -122.15602 36631 ft 484 kts 355°
2026-05-08 02:46 38.99654 -122.15837 37027 ft 485 kts 355°
2026-05-08 02:46 39.03027 -122.16072 37422 ft 485 kts 355°
2026-05-08 02:47 39.06392 -122.16307 37840 ft 484 kts 355°
2026-05-08 02:47 39.09753 -122.16541 38244 ft 484 kts 355°
2026-05-08 02:47 39.13121 -122.16777 38611 ft 484 kts 355°
2026-05-08 02:47 39.16494 -122.17013 38963 ft 484 kts 355°
2026-05-08 02:48 39.19857 -122.17248 39312 ft 484 kts 355°
2026-05-08 02:48 39.23226 -122.17484 39651 ft 484 kts 355°
2026-05-08 02:48 39.26544 -122.17717 39926 ft 485 kts 355°
2026-05-08 02:48 39.29937 -122.17956 39957 ft 490 kts 355°
2026-05-08 02:49 39.36746 -122.18434 39984 ft 488 kts 355°
2026-05-08 02:49 39.43484 -122.18907 39987 ft 482 kts 355°
2026-05-08 02:50 39.49049 -122.19299 39995 ft 481 kts 355°
2026-05-08 02:50 39.55730 -122.19772 39995 ft 480 kts 355°
2026-05-08 02:51 39.63503 -122.20323 39995 ft 481 kts 355°
2026-05-08 02:51 39.69112 -122.20722 39995 ft 482 kts 355°
2026-05-08 02:52 39.75826 -122.21199 39997 ft 483 kts 355°
2026-05-08 02:52 39.82514 -122.21675 39996 ft 484 kts 355°
2026-05-08 02:53 39.89258 -122.22156 39997 ft 485 kts 355°
2026-05-08 02:53 39.96016 -122.22640 39994 ft 486 kts 355°
2026-05-08 02:54 40.02736 -122.23121 39995 ft 486 kts 355°
2026-05-08 02:54 40.09507 -122.23401 39995 ft 487 kts
2026-05-08 02:55 40.19592 -122.21437 40000 ft 489 kts
2026-05-08 02:56 40.26278 -122.19740 39996 ft 489 kts
2026-05-08 02:56 40.32920 -122.18092 39994 ft 489 kts
2026-05-08 02:57 40.39621 -122.16463 39996 ft 488 kts
2026-05-08 02:57 40.46309 -122.14846 39994 ft 488 kts
2026-05-08 02:58 40.52997 -122.13225 39996 ft 488 kts
2026-05-08 02:58 40.59692 -122.11596 39994 ft 488 kts
2026-05-08 02:59 40.66341 -122.09975 39994 ft 489 kts
2026-05-08 02:59 40.73039 -122.08338 39990 ft 489 kts
2026-05-08 03:00 40.79738 -122.06698 39993 ft 490 kts
2026-05-08 03:00 40.86438 -122.05053 39995 ft 491 kts
2026-05-08 03:01 40.93159 -122.03401 39992 ft 492 kts
2026-05-08 03:01 40.99855 -122.01752 39990 ft 493 kts
2026-05-08 03:02 41.06604 -122.00085 39999 ft 494 kts
2026-05-08 03:02 41.13373 -121.98411 39989 ft 495 kts
2026-05-08 03:03 41.20163 -121.96727 39999 ft 497 kts
2026-05-08 03:03 41.26934 -121.95045 40001 ft 498 kts
2026-05-08 03:04 41.33756 -121.93347 39993 ft 498 kts
2026-05-08 03:04 41.40573 -121.91645 39997 ft 498 kts
2026-05-08 03:05 41.47399 -121.89939 39987 ft 499 kts
2026-05-08 03:05 41.54225 -121.88228 39997 ft 499 kts
2026-05-08 03:06 41.61056 -121.86512 39998 ft 499 kts
2026-05-08 03:06 41.67843 -121.84805 39993 ft 499 kts
2026-05-08 03:07 41.74664 -121.83084 39992 ft 498 kts
2026-05-08 03:07 41.81476 -121.81363 39993 ft 497 kts
2026-05-08 03:08 41.88276 -121.79640 39995 ft 497 kts
2026-05-08 03:08 41.95059 -121.77918 39991 ft 496 kts
2026-05-08 03:09 42.01802 -121.76202 39993 ft 495 kts
2026-05-08 03:09 42.08575 -121.74476 39994 ft 495 kts
2026-05-08 03:10 42.15373 -121.73070 39996 ft 493 kts
2026-05-08 03:10 42.22180 -121.73182 39997 ft 491 kts 354°
2026-05-08 03:11 42.28998 -121.73843 39998 ft 492 kts 354°
2026-05-08 03:11 42.35832 -121.74510 39997 ft 493 kts 354°
2026-05-08 03:12 42.42679 -121.75132 39998 ft 494 kts 354°
2026-05-08 03:12 42.49509 -121.75728 39995 ft 495 kts 354°
2026-05-08 03:13 42.56396 -121.76326 39995 ft 495 kts 354°
2026-05-08 03:13 42.63266 -121.76926 39993 ft 495 kts 354°
2026-05-08 03:14 42.70143 -121.77529 39993 ft 494 kts 354°
2026-05-08 03:14 42.76966 -121.78130 39993 ft 494 kts 354°
2026-05-08 03:15 42.83827 -121.78735 39996 ft 493 kts 354°
2026-05-08 03:15 42.90689 -121.79341 39994 ft 493 kts 354°
2026-05-08 03:16 42.97546 -121.79949 39993 ft 493 kts 354°
2026-05-08 03:16 43.04396 -121.80557 39995 ft 493 kts 354°
2026-05-08 03:17 43.11202 -121.81163 39994 ft 493 kts 354°
2026-05-08 03:17 43.18049 -121.81774 39995 ft 493 kts 354°
2026-05-08 03:18 43.24906 -121.82387 39992 ft 493 kts 354°
2026-05-08 03:18 43.31760 -121.83001 39999 ft 494 kts 354°
2026-05-08 03:19 43.38619 -121.83617 39995 ft 494 kts 354°
2026-05-08 03:19 43.45431 -121.84230 39996 ft 494 kts 354°
2026-05-08 03:20 43.52295 -121.84849 39998 ft 494 kts 354°
2026-05-08 03:20 43.59168 -121.85470 39997 ft 494 kts 354°
2026-05-08 03:21 43.66036 -121.86093 39990 ft 494 kts 354°
2026-05-08 03:21 43.72856 -121.86713 39994 ft 494 kts 354°
2026-05-08 03:22 43.79716 -121.87337 39997 ft 493 kts 354°
2026-05-08 03:22 43.86572 -121.87963 39999 ft 494 kts 354°
2026-05-08 03:23 43.93440 -121.88591 39992 ft 494 kts 354°
2026-05-08 03:23 44.00312 -121.89221 39992 ft 495 kts 354°
2026-05-08 03:24 44.07187 -121.89853 39996 ft 495 kts 354°
2026-05-08 03:24 44.14014 -121.90481 39988 ft 495 kts 354°
2026-05-08 03:25 44.20887 -121.91116 39995 ft 494 kts 354°
2026-05-08 03:25 44.27750 -121.91751 39992 ft 494 kts 354°
2026-05-08 03:26 44.34609 -121.92387 40000 ft 493 kts 354°
2026-05-08 03:26 44.41458 -121.93023 39989 ft 493 kts 354°
2026-05-08 03:27 44.48295 -121.93660 39996 ft 493 kts 354°
2026-05-08 03:27 44.55143 -121.94300 39992 ft 493 kts 354°
2026-05-08 03:28 44.61983 -121.94941 39996 ft 492 kts 354°
2026-05-08 03:28 44.68767 -121.95577 39994 ft 490 kts 354°
2026-05-08 03:29 44.75530 -121.96213 39991 ft 490 kts 354°
2026-05-08 03:29 44.82331 -121.96854 39990 ft 489 kts 354°
2026-05-08 03:30 44.92539 -121.97820 39992 ft 490 kts 354°
2026-05-08 03:31 45.06120 -121.99110 39989 ft 491 kts 354°
2026-05-08 03:32 45.16343 -122.00084 39988 ft 491 kts 354°
2026-05-08 03:32 45.23171 -122.00737 40000 ft 491 kts 354°
2026-05-08 03:33 45.30009 -122.01393 39988 ft 492 kts 354°
2026-05-08 03:33 45.36833 -122.02048 40001 ft 490 kts 354°
2026-05-08 03:34 45.43635 -122.02704 39989 ft 489 kts 354°
2026-05-08 03:34 45.50381 -122.03355 39999 ft 488 kts 354°
2026-05-08 03:35 45.57147 -122.04010 39994 ft 487 kts 354°
2026-05-08 03:35 45.63899 -122.04665 39999 ft 486 kts 354°
2026-05-08 03:36 45.70650 -122.05322 39980 ft 486 kts 354°
2026-05-08 03:36 45.77397 -122.05980 39996 ft 486 kts 354°
2026-05-08 03:37 45.84105 -122.06636 39992 ft 487 kts 354°
2026-05-08 03:37 45.90869 -122.07299 39996 ft 488 kts 354°
2026-05-08 03:38 45.97661 -122.07965 40001 ft 489 kts 354°
2026-05-08 03:38 46.04428 -122.08631 40003 ft 490 kts 354°
2026-05-08 03:39 46.11226 -122.09303 39987 ft 490 kts 354°
2026-05-08 03:39 46.18017 -122.09975 39990 ft 489 kts 354°
2026-05-08 03:40 46.24823 -122.10650 39991 ft 489 kts 354°
2026-05-08 03:40 46.30476 -122.11212 39996 ft 489 kts 354°
2026-05-08 03:41 46.37277 -122.11889 39995 ft 491 kts 354°
2026-05-08 03:41 46.44095 -122.12570 39998 ft 491 kts 354°
2026-05-08 03:42 46.52017 -122.13364 39993 ft 490 kts 354°
2026-05-08 03:42 46.57706 -122.13935 39989 ft 488 kts 354°
2026-05-08 03:43 46.64443 -122.14613 39994 ft 488 kts 354°
2026-05-08 03:43 46.71253 -122.15300 40001 ft 487 kts 354°
2026-05-08 03:44 46.78006 -122.15983 39993 ft 486 kts 354°
2026-05-08 03:44 46.84714 -122.16664 39997 ft 486 kts 354°
2026-05-08 03:45 46.91466 -122.17350 39950 ft 485 kts 354°
2026-05-08 03:45 46.94824 -122.17692 39757 ft 483 kts 354°
2026-05-08 03:45 46.98188 -122.18035 39447 ft 484 kts 354°
2026-05-08 03:45 47.01546 -122.18377 39176 ft 483 kts 354°
2026-05-08 03:46 47.04901 -122.18720 38872 ft 483 kts 354°
2026-05-08 03:46 47.08254 -122.19064 38544 ft 483 kts 354°
2026-05-08 03:46 47.11608 -122.19408 38213 ft 483 kts 354°
2026-05-08 03:46 47.14927 -122.19749 37830 ft 484 kts 354°
2026-05-08 03:47 47.18278 -122.20093 37457 ft 482 kts 354°
2026-05-08 03:47 47.21618 -122.20436 36905 ft 478 kts 354°
2026-05-08 03:47 47.24922 -122.20775 36397 ft 473 kts 354°
2026-05-08 03:47 47.28186 -122.21112 35895 ft 468 kts 354°
2026-05-08 03:48 47.31414 -122.21445 35380 ft 463 kts 354°
2026-05-08 03:48 47.34618 -122.21776 34853 ft 459 kts 354°
2026-05-08 03:48 47.37793 -122.22104 34334 ft 455 kts 354°
2026-05-08 03:48 47.40939 -122.22430 33820 ft 451 kts 354°
2026-05-08 03:49 47.44058 -122.22754 33302 ft 448 kts 354°
2026-05-08 03:49 47.47155 -122.23076 32792 ft 444 kts 354°
2026-05-08 03:49 47.50233 -122.23397 32284 ft 440 kts 354°
2026-05-08 03:49 47.53284 -122.23715 31781 ft 437 kts 354°
2026-05-08 03:50 47.56301 -122.24029 31279 ft 433 kts 354°
2026-05-08 03:50 47.59300 -122.24342 30783 ft 430 kts 354°
2026-05-08 03:50 47.62271 -122.24653 30293 ft 427 kts 354°
2026-05-08 03:50 47.65184 -122.24958 29809 ft 424 kts 354°
2026-05-08 03:51 47.68115 -122.25265 29311 ft 421 kts 354°
2026-05-08 03:51 47.71021 -122.25570 28817 ft 418 kts 354°
2026-05-08 03:51 47.73913 -122.25873 28332 ft 415 kts 354°
2026-05-08 03:51 47.76786 -122.26175 27845 ft 412 kts 354°
2026-05-08 03:52 47.79644 -122.26476 27360 ft 409 kts 354°
2026-05-08 03:52 47.82483 -122.26776 26890 ft 406 kts 354°
2026-05-08 03:52 47.85297 -122.27073 26408 ft 404 kts 354°
2026-05-08 03:52 47.88090 -122.27367 25945 ft 401 kts 354°
2026-05-08 03:53 47.90869 -122.27662 25482 ft 398 kts 353°
2026-05-08 03:53 47.93604 -122.28164 25002 ft 394 kts 347°
2026-05-08 03:53 47.96280 -122.28921 24557 ft 390 kts 347°
2026-05-08 03:53 47.98931 -122.29707 24114 ft 387 kts 346°
2026-05-08 03:54 48.01568 -122.30495 23668 ft 384 kts 346°
2026-05-08 03:54 48.04157 -122.31265 23231 ft 382 kts 346°
2026-05-08 03:54 48.06757 -122.32031 22791 ft 379 kts 346°
2026-05-08 03:54 48.09339 -122.32787 22359 ft 377 kts 347°
2026-05-08 03:55 48.11909 -122.33536 21918 ft 375 kts 347°
2026-05-08 03:55 48.14463 -122.34279 21479 ft 373 kts 347°
2026-05-08 03:55 48.17014 -122.35021 21049 ft 371 kts 347°
2026-05-08 03:55 48.19542 -122.35757 20617 ft 369 kts 347°
2026-05-08 03:56 48.22064 -122.36491 20183 ft 367 kts 347°
2026-05-08 03:56 48.24570 -122.37222 19745 ft 366 kts 346°
2026-05-08 03:56 48.27028 -122.37940 19319 ft 364 kts 346°
2026-05-08 03:56 48.29508 -122.38664 18890 ft 362 kts 346°
2026-05-08 03:57 48.31978 -122.39387 18463 ft 361 kts 346°
2026-05-08 03:57 48.34438 -122.40107 18018 ft 359 kts 346°
2026-05-08 03:57 48.36890 -122.40826 17593 ft 358 kts 346°
2026-05-08 03:57 48.39332 -122.41542 17166 ft 356 kts 346°
2026-05-08 03:58 48.41764 -122.42256 16735 ft 355 kts 346°
2026-05-08 03:58 48.44185 -122.42968 16300 ft 353 kts 346°
2026-05-08 03:58 48.46592 -122.43677 15873 ft 352 kts 346°
2026-05-08 03:58 48.48965 -122.44375 15452 ft 351 kts 346°
2026-05-08 03:59 48.51358 -122.45081 15027 ft 349 kts 346°
2026-05-08 03:59 48.53741 -122.45783 14602 ft 348 kts 346°
2026-05-08 03:59 48.56118 -122.46485 14181 ft 347 kts 346°
2026-05-08 03:59 48.58490 -122.47186 13719 ft 347 kts 346°
2026-05-08 04:00 48.60855 -122.47886 13277 ft 346 kts 346°
2026-05-08 04:00 48.63214 -122.48585 12848 ft 345 kts 346°
2026-05-08 04:00 48.65567 -122.49282 12428 ft 343 kts 346°
2026-05-08 04:00 48.67903 -122.49975 12115 ft 339 kts 346°
2026-05-08 04:01 48.70100 -122.50761 11982 ft 316 kts 335°
2026-05-08 04:01 48.71894 -122.52476 11932 ft 297 kts 314°
2026-05-08 04:01 48.73245 -122.54799 11604 ft 296 kts 306°
2026-05-08 04:01 48.74504 -122.57250 11312 ft 293 kts 305°
2026-05-08 04:02 48.75730 -122.59683 10949 ft 289 kts 305°
2026-05-08 04:02 48.76909 -122.62019 10608 ft 272 kts 305°
2026-05-08 04:02 48.78070 -122.64317 10362 ft 279 kts 305°
2026-05-08 04:02 48.79256 -122.66659 10079 ft 277 kts 305°
2026-05-08 04:03 48.80421 -122.68949 9810 ft 272 kts 305°
2026-05-08 04:03 48.82706 -122.73434 9278 ft 267 kts 305°
2026-05-08 04:03 48.83842 -122.75663 9031 ft 267 kts 305°
2026-05-08 04:04 48.85181 -122.77592 8563 ft 268 kts 330°
2026-05-08 04:04 48.86967 -122.78139 8200 ft 258 kts 359°
2026-05-08 04:04 48.88701 -122.78096 7944 ft 241 kts 355°
2026-05-08 04:04 48.90335 -122.78167 7678 ft 228 kts 354°
2026-05-08 04:05 48.91900 -122.78259 7463 ft 228 kts 354°
2026-05-08 04:05 48.93492 -122.78357 7238 ft 230 kts 354°
2026-05-08 04:05 48.95093 -122.78455 6993 ft 230 kts 354°
2026-05-08 04:05 48.96696 -122.78554 6758 ft 231 kts 354°
2026-05-08 04:06 48.98297 -122.78653 6512 ft 230 kts 354°
2026-05-08 04:06 48.99890 -122.78751 6308 ft 227 kts 354°
2026-05-08 04:06 49.01467 -122.78849 6057 ft 227 kts 354°
2026-05-08 04:06 49.03048 -122.78948 5662 ft 227 kts 354°
2026-05-08 04:07 49.04618 -122.79046 5303 ft 224 kts 354°
2026-05-08 04:07 49.06220 -122.79149 5372 ft 248 kts 354°
2026-05-08 04:07 49.08023 -122.79262 4889 ft 262 kts 355°
2026-05-08 04:07 49.09816 -122.79415 4338 ft 257 kts 353°
2026-05-08 04:08 49.11616 -122.79608 3616 ft 260 kts 352°
2026-05-08 04:08 49.13352 -122.79799 3220 ft 236 kts 348°
2026-05-08 04:08 49.14758 -122.80634 2975 ft 204 kts 313°
2026-05-08 04:08 49.15452 -122.82253 2929 ft 178 kts 288°
2026-05-08 04:09 49.15916 -122.83961 2916 ft 165 kts 286°
2026-05-08 04:09 49.16258 -122.85505 2887 ft 144 kts 282°
2026-05-08 04:09 49.16546 -122.86892 2889 ft 131 kts 281°
2026-05-08 04:09 49.16796 -122.88228 2914 ft 131 kts 279°
2026-05-08 04:10 49.17001 -122.89578 2931 ft 131 kts 277°
2026-05-08 04:10 49.17181 -122.90930 2932 ft 128 kts 276°
2026-05-08 04:10 49.17343 -122.92244 2937 ft 123 kts 276°
2026-05-08 04:10 49.17497 -122.93561 2904 ft 130 kts 275°
2026-05-08 04:11 49.17655 -122.94931 2735 ft 130 kts 275°
2026-05-08 04:11 49.17808 -122.96259 2555 ft 126 kts 275°
2026-05-08 04:11 49.17956 -122.97556 2395 ft 122 kts 275°
2026-05-08 04:11 49.18101 -122.98838 2239 ft 122 kts 275°
2026-05-08 04:12 49.18248 -123.00121 2081 ft 122 kts 275°
2026-05-08 04:12 49.18393 -123.01402 1921 ft 122 kts 275°
2026-05-08 04:12 49.18538 -123.02679 1747 ft 121 kts 275°
2026-05-08 04:12 49.18682 -123.03942 1592 ft 120 kts 275°
2026-05-08 04:13 49.18825 -123.05198 1435 ft 120 kts 275°
2026-05-08 04:13 49.18967 -123.06447 1281 ft 119 kts 275°
2026-05-08 04:13 49.19106 -123.07673 1114 ft 118 kts 275°
2026-05-08 04:13 49.19246 -123.08904 962 ft 117 kts 275°
2026-05-08 04:14 49.19387 -123.10143 811 ft 119 kts 275°
2026-05-08 04:14 49.19528 -123.11383 652 ft 117 kts 275°
2026-05-08 04:14 49.19670 -123.12608 483 ft 117 kts 277°
2026-05-08 04:14 49.19798 -123.13864 346 ft 122 kts 278°
2026-05-08 04:15 49.19959 -123.15133 180 ft 121 kts 274°
2026-05-08 04:15 49.20097 -123.16420 44 ft 122 kts 275°
2026-05-08 04:15 49.20211 -123.17519 29 ft 67 kts 280°
2026-05-08 04:15 49.20279 -123.18109 28 ft 51 kts 279°
2026-05-08 04:16 49.20288 -123.18491 29 ft 30 kts 257°
2026-05-08 04:16 49.20251 -123.18696 28 ft 18 kts 251°
2026-05-08 04:16 49.20186 -123.18831 27 ft 14 kts 183°
2026-05-08 04:16 49.20147 -123.18725 27 ft 19 kts 103°
2026-05-08 04:17 49.20116 -123.18529 27 ft 12 kts 140°
2026-05-08 04:17 49.20050 -123.18458 27 ft 13 kts 107°
2026-05-08 04:17 49.20021 -123.18394 27 ft 2 kts 160°
2026-05-08 04:17 49.19979 -123.18394 27 ft 2 kts 193°
2026-05-08 04:18 49.19965 -123.18398 27 ft 0 kts 192°